Weather History for Atwater, CA

Change the Weather History Date:

Tuesday, April 8, 2014

  Actual Average (KMCE) Record (KMCE)
Temperature  
Mean Temperature 68 °F 57 °F  
Max Temperature 87 °F 70 °F 88 °F (2014)
Min Temperature 50 °F 44 °F 34 °F (2001)
Degree Days  
Heating Degree Days 0    
Month to date heating degree days  
Since 1 July heating degree days  
Cooling Degree Days 4    
Month to date cooling degree days  
Year to date cooling degree days  
Growing Degree Days 18 (Base 50)    
Moisture  
Dew Point 57 °F    
Average Humidity 84    
Maximum Humidity 100    
Minimum Humidity 24    
Precipitation  
Precipitation 0.00 in 0.03 in 0.27 in (2009)
Month to date precipitation 0.29  
Year to date precipitation 7.31  
Since 1 July precipitation 11.13  
Snow  
Snow 0.00 in - - ()
Month to date snowfall  
Since 1 July snowfall  
Snow Depth -    
Sea Level Pressure  
Sea Level Pressure 30.05 in    
Wind  
Wind Speed 0 mph (NW)    
Max Wind Speed 7 mph    
Max Gust Speed -    
Visibility 8 miles    
Events      
T = Trace of Precipitation, MM = Missing Value Source: NWS Daily Summary

Daily Weather History Graph

Daily Weather History Graph

Search for Another Location

Airport:

Trip Planner

Search our weather history database for the weather conditions in past years. The results will help you decide how hot, cold, wet, or windy it might be!

Date:

Astronomy

Apr. 08, 2014 Rise Set
Actual Time 6:37 AM PDT 7:31 PM PDT
Civil Twilight 6:10 AM PDT 7:57 PM PDT
Nautical Twilight 5:39 AM PDT 8:29 PM PDT
Astronomical Twilight 5:06 AM PDT 9:02 PM PDT
Moon 1:36 PM PDT (4/8) 2:46 AM PDT (4/8)
Length of Visible Light 13h 47m
Length of Day
12h 53m
Waxing Gibbous, 63% of the Moon is Illuminated
Apr 8
Waxing Gibbous
Apr 15
Full
Apr 22
Last Quarter
Apr 28
New
May 6
First Quarter

Hourly Weather History & Observations

Time (PDT) Temp. Heat Index Dew Point Humidity Pressure Visibility Wind Dir Wind Speed Gust Speed Precip Events Conditions
12:15 AM 60.8 °F - 60.8 °F 100% 30.08 in 10.0 mi Calm Calm - N/A   Clear
12:35 AM 60.8 °F - 60.8 °F 100% 30.09 in 10.0 mi Calm Calm - N/A   Clear
12:55 AM 57.2 °F - 57.2 °F 100% 30.09 in 10.0 mi Calm Calm - N/A   Clear
1:15 AM 57.2 °F - 57.2 °F 100% 30.08 in 10.0 mi Calm Calm - N/A   Clear
1:35 AM 55.4 °F - 55.4 °F 100% 30.08 in 8.0 mi Calm Calm - N/A   Clear
1:55 AM 55.4 °F - 55.4 °F 100% 30.08 in 4.0 mi Calm Calm - N/A   Clear
2:15 AM 55.4 °F - 55.4 °F 100% 30.08 in 5.0 mi Calm Calm - N/A   Clear
2:35 AM 55.4 °F - 55.4 °F 100% 30.07 in 6.0 mi Calm Calm - N/A   Clear
2:55 AM 55.4 °F - 55.4 °F 100% 30.07 in 8.0 mi Calm Calm - N/A   Clear
3:15 AM 53.6 °F - 53.6 °F 100% 30.07 in 9.0 mi Calm Calm - N/A   Clear
3:35 AM 53.6 °F - 53.6 °F 100% 30.07 in 8.0 mi Calm Calm - N/A   Clear
3:55 AM 53.6 °F - 53.6 °F 100% 30.07 in 10.0 mi Calm Calm - N/A   Clear
4:15 AM 53.6 °F - 53.6 °F 100% 30.07 in 5.0 mi Calm Calm - N/A   Clear
4:35 AM 53.6 °F - 53.6 °F 100% 30.07 in 5.0 mi Calm Calm - N/A   Clear
4:55 AM 53.6 °F - 53.6 °F 100% 30.07 in 7.0 mi Calm Calm - N/A   Clear
5:15 AM 51.8 °F - 51.8 °F 100% 30.07 in 5.0 mi Calm Calm - N/A   Clear
5:35 AM 51.8 °F - 51.8 °F 100% 30.07 in 5.0 mi Calm Calm - N/A   Clear
5:55 AM 51.8 °F - 51.8 °F 100% 30.08 in 10.0 mi Calm Calm - N/A   Clear
6:45 AM 50.0 °F - 50.0 °F 100% 30.09 in 10.0 mi Calm Calm - N/A   Clear
7:45 AM 55.4 °F - 55.4 °F 100% 30.10 in 6.0 mi Calm Calm - N/A   Clear
8:45 AM 62.6 °F - 62.6 °F 100% 30.10 in 5.0 mi Calm Calm - N/A   Haze
9:45 AM 69.8 °F - 57.2 °F 64% 30.11 in 5.0 mi Calm Calm - N/A   Haze
10:45 AM 75.2 °F - 55.4 °F 50% 30.12 in 5.0 mi Calm Calm - N/A   Haze
11:45 AM 80.6 °F 80.5 °F 55.4 °F 42% 30.11 in 5.0 mi Calm Calm - N/A   Haze
1:45 PM 84.2 °F 82.8 °F 53.6 °F 35% 30.07 in 7.0 mi Calm Calm - N/A   Partly Cloudy
2:45 PM 86.0 °F - 51.8 °F 31% 30.04 in 10.0 mi Calm Calm - N/A   Partly Cloudy
3:45 PM 87.8 °F - 50.0 °F 27% 30.03 in 10.0 mi Calm Calm - N/A   Clear
4:45 PM 87.8 °F - 48.2 °F 25% 30.01 in 10.0 mi Calm Calm - N/A   Clear
5:45 PM 87.8 °F - 46.4 °F 24% 29.99 in 10.0 mi Calm Calm - N/A   Clear
6:45 PM 80.6 °F 81.1 °F 59.0 °F 48% 29.99 in 10.0 mi Calm Calm - N/A   Clear
7:45 PM 73.4 °F - 59.0 °F 61% 29.98 in 10.0 mi Calm Calm - N/A   Clear
8:15 PM 71.6 °F - 62.6 °F 73% 29.99 in 10.0 mi Calm Calm - N/A   Clear
8:35 PM 68.0 °F - 64.4 °F 88% 29.99 in 10.0 mi Calm Calm - N/A   Clear
8:45 PM 66.2 °F - 66.2 °F 100% 30.00 in 10.0 mi Calm Calm - N/A   Clear
8:55 PM 66.2 °F - 66.2 °F 100% 30.00 in 10.0 mi Calm Calm - N/A   Clear
9:15 PM 66.2 °F - 66.2 °F 100% 30.00 in 10.0 mi Calm Calm - N/A   Clear
9:35 PM 66.2 °F - 66.2 °F 100% 30.01 in 10.0 mi Calm Calm - N/A   Clear
9:55 PM 68.0 °F - 64.4 °F 88% 30.01 in 10.0 mi Calm Calm - N/A   Clear
10:15 PM 66.2 °F - 64.4 °F 94% 30.01 in 10.0 mi Calm Calm - N/A   Clear
10:35 PM 69.8 °F - 62.6 °F 78% 30.01 in 10.0 mi Calm Calm - N/A   Clear
10:55 PM 68.0 °F - 64.4 °F 88% 30.02 in 10.0 mi WNW 6.9 mph - N/A   Clear
11:15 PM 66.2 °F - 62.6 °F 88% 30.01 in 10.0 mi Calm Calm - N/A   Clear
11:55 PM 60.8 °F - 60.8 °F 100% 30.01 in 10.0 mi NNW 5.8 mph - N/A   Clear